Flag for Germany Weather past 2 weeks in Forchheim, Bavaria, Germany

Now
36 °F

Overcast.


Feels Like: 36 °F
Forecast: 29 / 34 °F
Wind: 2 mph from Northwest

Location: Bamberg

Current Time: Dec 26, 2014 at 4:46:24 AM

Latest Report: Dec 26, 2014 at 4:00 AM


Visibility: 22 mi

Pressure: 30.35 "Hg

Humidity: 78%

Dew point: 30 °F

Location of ForchheimLocation

Historic Weather in Forchheim — Graph

°F

Forchheim temperature yesterday

Maximum temperature yesterday: 46 °F (at 12:00 AM)
Minimum temperature yesterday: 37 °F (at 8:00 AM)
Average temperature yesterday: 41 °F

Past Weeks' High & Low Weather Summary

 TemperatureHumidityPressure
High54 °F (Dec 19, 12:00 AM)100% (Dec 14, 8:00 AM)30.49 "Hg (Dec 14, 8:00 AM)
Low31 °F (Dec 17, 3:00 AM)62% (Dec 15, 3:00 PM)29.69 "Hg (Dec 12, 7:00 PM)
Average43 °F85%30.06 "Hg
* Reported Dec 11 3:00 AM — Dec 26 3:00 AM, Forchheim, Weather by CustomWeather, © 2014

Note: Actual official high and low records may vary slightly from our data, if they occured in-between our weather recording intervals... More about our weather records

Advertising

Forchheim weather history for previous 24 hours

 ConditionsComfort  
Time TempWeatherWind HumidityBarometerVisibility
3:00 AM
Dec 26
37 °FOvercast.2 mph75%30.34 "Hg25 mi
2:00 AM37 °FOvercast.5 mph75%30.33 "Hg28 mi
1:00 AM37 °FOvercast.3 mph76%30.32 "Hg25 mi
12:00 AM37 °FPassing clouds.3 mph78%30.32 "Hg25 mi
11:00 PM
Dec 25
38 °FPassing clouds.3 mph74%30.31 "Hg31 mi
10:00 PM40 °FOvercast.5 mph73%30.29 "Hg28 mi
9:00 PM40 °FDrizzle. Overcast.3 mph74%30.28 "Hg22 mi
8:00 PM40 °FOvercast.3 mph72%30.27 "Hg28 mi
7:00 PM40 °FOvercast.5 mph72%30.26 "Hg28 mi
6:00 PM41 °FOvercast.3 mph70%30.25 "Hg28 mi
5:00 PM41 °FOvercast.2 mph72%30.24 "Hg28 mi
4:00 PM41 °FOvercast.2 mph71%30.24 "Hg34 mi
3:00 PM41 °FOvercast.5 mph70%30.24 "Hg34 mi
2:00 PM41 °FOvercast.5 mph70%30.24 "Hg37 mi
1:00 PM41 °FOvercast.3 mph71%30.24 "Hg37 mi
12:00 PM41 °FPassing clouds.3 mph70%30.25 "Hg43 mi
11:00 AM40 °FOvercast.5 mph72%30.26 "Hg40 mi
10:00 AM39 °FOvercast.3 mph76%30.25 "Hg40 mi
9:00 AM38 °FPartly sunny.2 mph79%30.24 "Hg37 mi
8:00 AM37 °FOvercast.2 mph78%30.22 "Hg43 mi
7:00 AM38 °FOvercast.1 mph76%30.20 "Hg37 mi
6:00 AM40 °FOvercast.3 mph73%30.19 "Hg43 mi
5:00 AM42 °FOvercast.3 mph70%30.16 "Hg43 mi
4:00 AM43 °FOvercast.3 mph73%30.15 "Hg43 mi
Weather by CustomWeather, © 2014

See weather overviewHow to use our weather pages